Regional Weather Roundup
Issued by NWS

Home | Current Version | Previous Version | Graphics & Text | Print | Product List | Glossary On
Versions: 1 2 3 4 5 6 7 8 9 10 11 12 13 14 15 16 17 18 19 20 21 22 23 24 25 26 27 28 29 30 31 32 33 34 35 36 37 38 39 40 41 42 43 44 45 46 47 48 49 50
000
ASUS43 KLSX 311859
RWRMO

WEATHER SUMMARY FOR MISSOURI
NATIONAL WEATHER SERVICE SPRINGFIELD MO
200 PM CDT FRI OCT 31 2014

NOTE: "FAIR" INDICATES FEW OR NO CLOUDS BELOW 12,000 FEET WITH NO
       SIGNIFICANT WEATHER AND/OR OBSTRUCTIONS TO VISIBILITY.
       CURRENT SKY AND/OR WEATHER CONDITIONS ARE NOT AVAILABLE FOR
       CHILLICOTHE AND FARMINGTON.

MOZ001>031-035>038-043-044-053-054-312000-
...NORTHERN AND WESTERN MISSOURI...

CITY           SKY/WX    TMP DP  RH WIND       PRES   REMARKS
KANSAS CTY INT SUNNY     43  20  39 N13G21    30.47F
KANSAS C DTWN  SUNNY     45  19  35 NE9       30.47F
LEE`S SUMMIT   SUNNY     44  18  35 N13G21    30.46F
ST JOSEPH      SUNNY     44  18  35 N15G22    30.50F
CHILLICOTHE      N/A     45  16  31 N15G22    30.46F
KIRKSVILLE     SUNNY     43  20  39 N16G22    30.42F

$$
MOZ066>068-077>081-088>096-101>105-312000-
...SOUTHWEST MISSOURI...

CITY           SKY/WX    TMP DP  RH WIND       PRES   REMARKS
SPRINGFIELD    SUNNY     47  21  35 N21G32    30.35F
JOPLIN         SUNNY     47  30  51 N13G24    30.40F

$$
MOZ032>034-039>042-045>050-055>058-069>072-312000-
...CENTRAL MISSOURI...

CITY           SKY/WX    TMP DP  RH WIND       PRES   REMARKS
COLUMBIA       SUNNY     46  21  37 N18G28    30.37F
JEFFERSON CITY SUNNY     46  21  37 N13G24    30.38F
ROLLA          SUNNY     44  24  45 NW17G30   30.31F
SEDALIA        LGT RAIN  46  19  34 N20       30.42F
OSAGE BEACH    SUNNY     45  19  36 N13G22    30.37F

$$
MOZ051-052-059>065-312000-
...EAST CENTRAL MISSOURI...

CITY           SKY/WX    TMP DP  RH WIND       PRES   REMARKS
ST LOUIS INTL  MOSUNNY   47  25  42 NW17G29   30.29F
SPIRIT OF STL  SUNNY     45  24  43 N20G29    30.30F
ST CHARLES     MOSUNNY   46  26  45 N14       30.30S

$$
MOZ072>076-082>087-097>100-106>115-312000-
...SOUTH CENTRAL AND SOUTHEAST MISSOURI...

CITY           SKY/WX    TMP DP  RH WIND       PRES   REMARKS
CAPE GIRARDEAU SUNNY     49  25  39 N23G36    30.21R
FARMINGTON     SUNNY    N/A N/A N/A NW22G30   30.25F
POPLAR BLUFF   SUNNY     53  23  31 NW20G35   30.20R
WEST PLAINS    SUNNY     49  22  34 N21G28    30.27S

$$



USA.gov is the U.S. government's official web portal to all federal, state and local government web resources and services.